L’Ascension de Saint-Peyrus 2015 – Les Photos – Les Résultats

Encore bravo à tous les marcheurs et les coureurs de cette édition 2015. Les premières photos sont en ligne. Retrouvez également le classement de la course ci-dessous.

Et à l’année prochaine 🙂

Ascension de Saint-Peyrus 2015 – Classement Course
Pos. Nom Temps total
1 253 MARTINS Alphonse 00:38:53.652
2 216 CHALUS Benoit 00:40:17.932
3 250 MARQUES Pascal 00:42:37.259
4 490 LYONNET Nicolas 00:44:29.504
5 247 MARAND Nicolas 00:44:37.971
6 265 DITTHAVONG Kéo 00:45:04.263
7 199 SALAUN Eric 00:45:21.937
8 194 VINCENT Florent 00:45:27.436
9 498 ROSSIGNOL Thomas 00:45:56.475
10 491 SORBETS Freddy 00:45:59.659
11 256 MOREL Stanislas 00:46:06.682
12 235 LABORDE Paul 00:46:18.418
13 499 FRANCOIS Frédéric 00:46:28.345
14 488 MAURIES Guillaume 00:46:43.641
15 482 DITTHAVONG Ananh 00:46:45.478
16 207 BARRAU Nicolas 00:46:54.795
17 481 CAZENAVES Téo 00:47:03.434
18 480 CAZENAVES Félix 00:47:06.419
19 494 PALENGAT Patrick 00:47:08.256
20 455 MAILLOT Stéphane 00:47:51.214
21 483 MARTINS Frédéric 00:47:52.014
22 211 BRUCKERT Stephane 00:48:33.934
23 266 PUYOL David 00:48:48.808
24 217 COLIN Patrick 00:48:52.663
25 215 CASTAING Benjamin 00:49:27.143
26 214 CASTAING Lucas 00:49:28.144
27 461 BASTIANI Valentin 00:49:29.249
28 451 BIDOLIS Jérôme 00:49:38.375
29 468 ONNAINTY Jean-Michel 00:49:52.620
30 486 LECOUVEY Jérémy 00:50:08.530
31 226 FRADET Philippe 00:50:09.066
32 267 REY Jean-Pierre 00:50:25.207
33 233 LABARTETTE Yannick 00:50:32.018
34 471 LATAPIE-BRIAN Guillaume 00:50:39.555
35 223 FAVREL Benoit 00:51:22.043
36 218 CRABOS Stéphane 00:51:38.603
37 452 BOURDIEU Maxime 00:51:39.658
38 210 BODET Laurent 00:51:41.637
39 500 CAZENAVE Ludovic 00:52:12.526
40 205 AUGUSTIN Laurent 00:52:18.821
41 225 FLEURISSON Mickael 00:52:39.166
42 489 CHEMINOT Patrice 00:53:01.911
43 262 PINTO Philippe 00:53:28.318
44 222 ESCALLE Romain 00:53:47.832
45 258 MORENO Antoine 00:54:06.100
46 463 BIBEN Bruno 00:54:07.795
47 208 BECHEREAU Patrice 00:54:09.149
48 470 GERMAIN Vincent 00:54:27.722
49 244 LHOMY Patrick 00:55:20.752
50 464 POURROUQUET Albert 00:55:26.036
51 467 MONREPOS Serge 00:55:29.185
52 495 PALENGAT Bruno 00:55:44.586
53 213 CASASSUS vincent 00:55:54.643
54 459 BARUS Maxime 00:55:58.304
55 453 DECLAUX Rémi 00:56:13.479
56 448 BRUNER Philippe 00:57:00.415
57 479 TARDET Frédéric 00:57:18.889
58 255 MATIAS Charles 00:57:21.387
59 487 LOM Pasacal 00:58:03.610
60 476 SALIS Pascal 00:58:12.745
61 454 DUPOUY Xavier 00:58:27.913
62 456 MAILLOT Laurence 00:58:31.515
63 220 DUCLOS Sylvain 00:58:48.111
64 248 MARCHAL Julien 00:59:33.543
65 460 LOPEZ Nathalie 00:59:37.013
66 263 PINTO Daniel 00:59:55.376
67 249 MAROCCHI Angela 00:59:59.759
68 472 LATAPIE-BRIAN Marion 01:00:00.632
69 261 PICARD Cathie 01:00:12.357
70 206 BARBEAU Elodie 01:00:50.242
71 466 MONREPOS Dominique 01:00:54.636
72 228 GRAJEWSKI Nathalie 01:01:08.251
73 201 ANDRES Fabienne 01:01:30.096
74 484 BONIS Jean-Michel 01:01:46.972
75 229 GRUYER Eric 01:02:00.168
76 243 LEROUX Dominique 01:02:02.846
77 259 PELLIN Christophe 01:02:04.870
78 485 BENOIST Gilles 01:02:16.361
79 195 STEHLY Celine 01:02:36.894
80 450 STEHLI Damien 01:02:37.374
81 212 CAMIADE  Marie-Noëlle 01:03:30.378
82 252 MARQUES Laurent 01:03:36.063
83 202 ANDREU Elodie 01:03:49.193
84 449 VEYSSIERE Céline 01:04:40.819
85 457 RIGOU Fabrice 01:04:43.821
86 240 LAVAL Alexandra 01:05:56.633
87 204 ARRAMON Gilles 01:06:14.612
88 196 SOUBAIGNE William 01:06:48.765
89 447 FORTAGE Claire 01:07:04.726
90 219 DRAUT Cécile 01:07:28.609
91 474 BEDECARRAX Areta 01:07:47.929
92 475 BARON Olivier 01:07:51.140
93 473 BARON Laeticia 01:07:51.525
94 492 DUMOULIN Vincent 01:08:03.327
95 493 LAULHE Olivier 01:08:44.539
96 496 CASTAING Jean Claude 01:09:13.070
97 254 MATIAS Sylvie 01:09:51.598
98 197 SOUBAIGNE Erika 01:11:27.618
99 477 FOUQUET Camille 01:12:26.145
100 478 DAGUERRE Séverine 01:12:27.891
101 469 FUMAT Christophe 01:12:54.163
102 497 FOROIT Eric 01:13:42.346
103 224 FAYE Serge 01:15:41.126
104 234 LABEYRIE Marie 01:16:43.525
105 260 PERE ESCAMPS Nadège 01:18:18.778
106 251 MARQUES Cécile 01:20:01.680
107 203 ARRAMON Anne-Laure 01:21:34.917
108 462 REIGADAS Julie 01:21:37.608
109 446 DUNHILL Anne-Marie 01:34:16.474

Add a Comment

Votre adresse e-mail ne sera pas publiée.